Theta_e
309 309 309 308 309 312 313 313 311 307 305 310 311 316 315 317 318 316 317 317 318 319 320 321 320 318 317 317 317 316 316 317 316 315 317 316 317 317
306 306 306 305 306 306 307 310 310 308 305 308 311 310 310 310 313 312 313 312 314 317 317 317 317 320 320 319 319 319 319 317 315 315 316 316 317 317
306 306 305 305 303 304 305 305 307 310 308 305 307 308 309 308 309 310 310 311 311 316 315 314 315 315 315 316 317 318 319 320 321 320 319 319 319 319
305 305 304 305 304 304 304 304 305 306 305 303 305 306 307 307 308 308 307 308 310 313 313 312 313 313 313 313 314 314 314 314 315 317 318 319 320 318
306 306 304 305 303 304 303 303 303 303 303 302 302 304 305 305 305 306 307 307 309 311 310 310 310 311 312 312 312 312 310 309 309 311 312 313 314 316
305 308 308 305 304 305 304 304 304 303 303 302 302 302 302 304 304 302 304 306 305 308 309 308 308 309 308 309 310 311 310 308 307 308 308 308 308 309
303 304 310 313 311 310 307 305 305 303 302 302 301 301 301 302 302 302 302 304 305 305 306 307 307 308 308 309 310 311 309 308 308 307 307 305 305 306
301 302 305 307 307 308 308 310 308 305 303 302 301 301 302 302 303 302 302 302 301 307 305 305 306 307 308 309 307 308 307 307 307 307 306 305 301 300
301 302 302 302 304 304 303 304 306 307 306 305 304 304 304 304 303 303 304 303 303 305 306 304 307 306 308 309 306 307 305 305 305 305 305 304 304 302
302 301 301 302 303 303 304 303 304 307 309 307 306 306 306 306 305 304 304 303 305 305 307 303 307 305 307 309 306 306 305 304 304 304 304 303 302 302
301 302 303 302 300 299 303 303 305 305 308 306 304 302 301 302 304 307 305 304 303 305 306 304 305 304 307 307 309 306 304 303 303 303 304 303 302 301
304 306 302 303 299 298 302 303 303 303 305 305 305 305 305 306 304 306 305 303 302 303 307 304 304 304 301 308 308 309 307 304 303 302 303 303 301 309
302 303 304 300 298 297 298 304 303 303 304 304 304 305 305 306 306 306 307 305 305 304 308 306 304 304 303 302 304 307 305 305 307 306 304 303 301 303
301 301 302 297 297 297 300 298 299 302 305 304 303 303 303 304 305 306 307 306 307 306 308 307 304 303 301 300 299 304 304 305 306 304 305 305 305 303
301 300 298 297 298 301 299 299 300 304 304 303 302 303 303 304 305 307 308 306 306 306 305 305 303 305 302 299 300 301 298 301 305 304 305 306 308 307
301 303 301 300 300 302 304 303 303 304 303 303 302 303 304 305 305 305 305 304 303 304 306 305 304 305 303 302 302 300 301 297 302 304 304 305 306 308
299 303 301 301 302 303 303 304 303 302 301 303 303 303 303 303 304 305 305 304 302 302 303 304 304 304 305 303 300 302 302 302 304 303 303 303 306 306
302 300 300 300 301 301 302 303 304 302 302 302 303 302 301 302 303 304 305 304 302 303 302 303 302 302 303 305 304 301 302 302 303 303 302 301 303 307
301 299 300 300 301 302 302 302 303 302 303 302 301 301 301 302 302 303 304 304 304 303 304 303 302 300 298 297 304 302 302 303 303 302 302 302 301 304
300 300 299 301 303 301 301 302 301 300 300 299 300 299 299 300 300 302 302 304 304 304 303 304 302 302 300 298 298 304 297 302 302 302 302 303 303 298
299 300 301 302 302 301 301 301 299 298 296 297 298 296 297 298 299 301 302 295 296 303 302 303 303 291 301 299 297 302 305 297 300 300 303 301 300 302
301 300 300 302 301 301 301 300 298 296 296 296 296 296 296 297 298 300 302 302 303 302 302 304 305 303 298 296 297 301 304 305 305 301 300 300 299 298
301 302 302 301 300 300 300 298 296 294 294 294 295 294 295 295 298 301 302 303 303 302 302 302 303 303 301 301 297 301 302 303 305 304 305 300 299 300
Wind_Speed
7 7 5 5 5 4 3 2 1 2 4 4 3 6 5 5 9 7 8 12 15 15 14 9 6 3 3 5 6 10 11 10 8 6 9 5 9 8
6 8 7 5 6 5 4 3 3 3 3 1 4 4 5 5 8 7 8 11 15 15 15 14 14 7 5 5 6 6 4 4 5 4 7 4 6 5
8 8 9 7 7 7 6 5 4 3 5 3 3 4 5 7 8 7 8 7 6 15 15 15 13 12 10 9 6 4 5 8 11 16 14 13 13 11
7 8 9 6 8 7 6 8 7 6 4 4 3 5 6 5 6 7 7 6 5 15 16 15 14 12 11 11 11 9 8 5 4 6 8 9 10 11
7 7 7 8 8 6 8 7 7 6 6 4 4 3 2 5 4 4 7 7 4 13 14 12 13 15 12 13 11 10 10 9 7 6 6 6 6 5
7 6 6 6 6 7 7 7 6 6 5 4 4 3 2 3 3 4 8 5 4 8 10 8 10 14 13 14 12 13 11 9 5 4 3 3 3 3
7 7 7 9 9 8 5 5 5 5 4 4 4 2 3 3 5 4 4 5 3 5 7 5 7 8 9 11 13 14 12 10 8 5 3 4 3 2
6 6 7 10 9 12 10 9 5 4 4 2 2 3 3 3 3 3 4 4 4 3 6 4 5 7 6 6 12 11 13 12 10 9 6 3 3 1
5 5 6 5 7 6 8 7 8 7 3 1 2 2 3 3 4 4 4 4 3 4 5 5 4 8 6 5 9 11 11 11 10 9 6 5 4 4
4 4 4 5 6 5 5 6 5 6 5 3 2 2 2 3 2 3 3 5 3 2 3 4 6 9 7 5 9 11 13 14 12 11 8 9 8 6
3 2 3 3 5 5 5 6 6 7 7 8 6 5 6 6 4 3 5 5 4 2 2 5 4 6 5 4 7 10 12 13 15 13 14 11 8 7
4 5 4 3 3 4 5 4 5 6 7 8 8 7 7 6 7 4 3 4 4 4 4 5 5 2 4 1 5 5 9 10 13 11 13 12 10 2
3 4 4 6 4 4 3 4 3 3 5 4 4 5 6 6 6 4 3 2 3 3 5 4 5 4 2 5 5 5 8 7 9 9 13 9 7 4
3 4 5 7 4 5 3 5 7 3 3 4 4 5 5 6 6 5 4 3 2 4 6 4 4 5 3 5 5 7 9 6 7 8 7 7 7 5
2 5 6 3 6 4 6 8 6 4 4 4 4 4 4 5 6 4 3 5 3 3 3 4 4 5 2 2 5 5 7 8 7 8 8 6 4 3
4 2 2 5 6 2 3 4 3 4 3 3 3 4 4 5 4 4 3 5 3 5 5 4 5 3 3 3 4 6 6 5 9 8 8 6 4 2
3 1 2 3 3 2 2 2 2 3 3 3 4 5 5 5 5 4 3 3 3 4 5 6 7 4 4 4 4 4 6 7 6 7 7 7 5 3
1 2 2 1 1 1 3 4 3 3 2 2 3 4 6 6 6 5 3 3 4 4 4 4 5 5 3 3 9 6 5 5 7 7 5 5 5 4
2 1 1 2 2 3 3 3 3 4 4 4 4 5 5 5 6 5 5 4 5 4 4 3 3 3 6 6 4 11 5 6 7 8 4 4 5 7
1 1 2 3 1 2 2 3 3 3 3 4 4 4 3 5 6 6 5 6 5 5 6 4 3 3 3 3 4 6 10 8 6 8 7 5 7 13
1 1 2 1 0 0 0 1 2 3 3 3 3 4 4 4 5 5 5 5 4 5 8 7 5 4 4 3 3 5 6 13 11 7 7 7 5 4
2 3 3 2 1 1 0 1 2 3 3 3 3 3 4 3 5 6 5 5 5 5 5 6 7 4 1 1 4 9 7 7 6 9 14 12 4 4
2 0 1 1 0 0 1 1 2 3 3 3 3 4 4 4 5 4 4 4 4 4 5 7 7 4 3 2 4 7 9 9 7 9 10 3 10 19
Wind_Direction
45 49 50 31 35 33 45 47 118 124 41 11 356 8 12 21 34 31 29 30 29 33 26 357 332 350 21 38 59 80 85 75 74 55 40 28 9 26
41 45 35 25 37 34 33 43 61 112 118 2 28 12 11 28 22 26 20 22 18 24 25 22 26 5 322 318 318 311 282 213 184 208 230 225 252 247
43 53 44 30 39 32 35 37 42 55 114 88 15 349 13 15 13 12 11 14 13 24 21 19 17 20 27 22 6 329 282 256 236 231 236 238 238 240
43 56 49 46 41 30 38 41 46 43 84 87 9 10 28 348 357 9 7 16 19 23 12 12 13 12 13 13 12 9 11 8 316 265 244 237 236 239
50 53 52 54 47 44 47 48 47 53 55 74 46 11 350 16 357 356 2 4 5 10 4 7 15 10 12 12 6 11 5 359 5 346 321 305 301 296
45 47 54 62 58 55 55 48 49 57 55 59 47 19 355 343 360 2 4 3 354 2 8 18 5 10 12 3 2 358 352 345 352 7 20 86 107 113
43 36 35 57 63 62 55 41 45 49 46 47 44 15 8 357 10 342 335 340 348 6 354 4 359 6 14 15 16 9 360 354 346 21 68 82 84 65
46 35 41 45 39 42 42 49 59 46 48 40 24 12 0 324 333 348 352 350 347 42 340 344 359 9 6 11 356 10 14 8 12 7 1 13 92 33
65 48 50 36 43 44 38 45 41 43 77 119 38 7 333 343 327 331 352 338 325 325 330 343 1 360 0 346 343 358 10 357 360 350 335 330 303 271
73 57 47 26 18 21 37 45 26 29 30 53 49 360 302 321 316 316 324 308 277 277 336 343 353 351 341 350 356 359 1 356 353 349 343 338 307 283
359 7 34 13 343 12 42 21 20 26 11 28 34 27 23 19 39 344 9 359 343 330 11 342 338 332 333 330 337 357 356 351 346 350 344 332 306 255
327 314 347 345 359 35 66 22 24 9 3 6 10 12 14 15 22 33 360 353 348 311 34 348 331 349 310 296 331 4 354 345 334 339 336 341 337 282
329 331 342 352 17 62 74 32 17 336 10 13 13 18 14 13 17 17 18 329 343 323 5 335 315 332 284 316 319 349 352 347 352 346 346 333 2 358
336 326 315 339 78 116 62 58 50 42 25 21 16 5 357 359 350 346 4 357 269 284 320 345 312 327 328 310 330 333 348 346 354 346 338 334 355 39
324 299 326 93 109 73 73 66 45 31 26 27 9 355 330 316 317 338 4 12 320 311 347 348 320 313 296 296 315 332 344 334 338 340 337 336 337 349
349 1 52 79 76 90 52 38 42 30 24 17 354 332 330 352 347 356 336 351 338 340 352 2 354 316 318 288 300 309 339 324 318 334 329 311 312 325
324 324 30 33 32 5 45 40 41 42 22 1 355 350 351 350 351 341 329 327 336 335 337 337 350 309 272 276 298 300 311 310 325 329 332 329 316 314
133 42 29 20 314 306 358 349 12 44 24 2 356 355 351 347 343 342 337 328 322 321 317 329 339 341 339 257 229 281 297 293 315 320 321 311 311 309
63 54 316 320 342 20 20 11 13 3 348 8 352 348 344 342 347 347 343 338 343 331 315 313 321 353 342 339 300 227 276 303 313 314 303 289 288 301
65 342 348 349 33 51 30 24 1 351 359 360 354 342 339 341 336 345 340 355 345 343 332 329 318 303 291 309 310 295 207 283 294 299 297 292 273 278
303 300 314 339 143 92 84 67 355 345 345 346 345 338 331 333 330 340 341 344 355 356 345 345 324 302 296 289 269 294 313 221 242 274 301 305 306 308
279 291 274 213 153 7 61 2 331 335 338 338 333 327 329 321 328 334 343 343 348 354 336 334 344 355 305 292 308 324 327 331 303 258 253 244 285 288
300 267 149 146 100 55 165 308 319 315 317 324 326 326 329 326 337 331 328 332 338 351 357 355 355 4 330 315 321 338 342 349 346 355 357 320 250 254